Regional Weather Roundup
Issued by NWS

Home | Current Version | Previous Version | Graphics & Text | Print | Product List | Glossary On
Versions: 1 2 3 4 5 6 7 8 9 10 11 12 13 14 15 16 17 18 19 20 21 22 23 24 25 26 27 28 29 30 31 32 33 34 35 36 37 38 39 40 41 42 43 44 45 46 47 48 49 50
000
ASUS43 KOAX 221502
RWRNE

WEATHER ROUNDUP FOR NEBRASKA
NATIONAL WEATHER SERVICE OMAHA NE
1000 AM CDT FRI MAY 22 2015

NOTES: SATELLITE DATA IS BEING USED TO AUGMENT CLOUD COVER ABOVE
       12000 FEET.
       "FAIR" INDICATES FEW OR NO CLOUDS BELOW 12,000 FEET WITH NO
       SIGNIFICANT WEATHER AND/OR OBSTRUCTIONS TO VISIBILITY.

  * THESE STATIONS DO NOT REPORT WEATHER SUCH AS RAIN...SNOW OR FOG.

NEZ001>004-019>022-054>056-221600-
NEBRASKA PANHANDLE

CITY           SKY/WX    TMP DP  RH WIND       PRES   REMARKS
SCOTTSBLUFF    LGT RAIN  49  47  93 E15       30.08S FOG
ALLIANCE       LGT RAIN  48  44  86 S12       30.11R
CHADRON        CLOUDY    54  45  71 S17       30.10R
SIDNEY         LGT RAIN  47  45  93 SE12      30.10S
$$

NEZ057>060-069>072-079>082-221600-
SOUTHWEST NEBRASKA

CITY           SKY/WX    TMP DP  RH WIND       PRES   REMARKS
NORTH PLATTE   LGT RAIN  49  45  86 SE9       30.18R
IMPERIAL       LGT RAIN  48  46  93 SE12      30.13S
LEXINGTON      LGT RAIN  50  47  87 S13       30.20R
MCCOOK         LGT RAIN  49  47  93 SE13      30.16S FOG
$$

NEZ005>010-023>029-035>040-094-221600-
NORTH CENTRAL NEBRASKA

CITY           SKY/WX    TMP DP  RH WIND       PRES   REMARKS
VALENTINE      PTSUNNY   60  42  51 S13       30.17S
AINSWORTH      PTSUNNY   59  42  53 S9        30.18S
BROKEN BOW     CLOUDY    51  46  83 SE6       30.19R
O`NEILL        PTSUNNY   60  46  60 S3        30.21S
ORD            CLOUDY    51  44  77 E3        30.20R
$$

NEZ041-046>049-061>064-073>077-083>087-221600-
SOUTH CENTRAL NEBRASKA

CITY           SKY/WX    TMP DP  RH WIND       PRES   REMARKS
GRAND ISLAND   CLOUDY    54  46  74 SE6       30.23R
HASTINGS       CLOUDY    53  44  71 S7        30.21S
KEARNEY *      CLOUDY    52  45  76 S10       30.21S
$$

NEZ011>018-030>034-042>045-221600-
NORTHEAST NEBRASKA

CITY           SKY/WX    TMP DP  RH WIND       PRES   REMARKS
NORFOLK        PTSUNNY   61  46  57 VRB3      30.22R
BLAIR          PTSUNNY   64  44  48 CALM      30.24R
COLUMBUS *     CLOUDY    59  43  55 SE3       30.26S
FREMONT        PTSUNNY   62  43  49 CALM      30.24R
TEKAMAH        PTSUNNY   64  43  46 CALM      30.23S
$$

NEZ050>053-065>068-078-088>093-221600-
SOUTHEAST NEBRASKA

CITY           SKY/WX    TMP DP  RH WIND       PRES   REMARKS
LINCOLN        CLOUDY    58  47  66 CALM      30.25R
OMAHA EPPLEY   CLOUDY    62  44  51 S3        30.24R
FALLS CITY       N/A     57  48  72 CALM      30.25S
PLATTSMOUTH    CLOUDY    62  41  46 CALM      30.25R
$$

NEZ044-045-051>053-067-221600-
OMAHA AREA

CITY           SKY/WX    TMP DP  RH WIND       PRES   REMARKS
OMAHA EPPLEY   CLOUDY    62  44  51 S3        30.24R
BLAIR          PTSUNNY   64  44  48 CALM      30.24R
FREMONT        PTSUNNY   62  43  49 CALM      30.24R
OFFUTT AFB     CLOUDY    63  48  58 E2        30.24R
PLATTSMOUTH    CLOUDY    62  41  46 CALM      30.25R
$$



USA.gov is the U.S. government's official web portal to all federal, state and local government web resources and services.